Ukiah, CA

10:06 PM PDT on June 22, 2017 (GMT -0700)
Ukiah Municipal

Weather History for KUKI - December, 2013

Change the Weather History Date:

Wednesday, December 18, 2013

  Actual Average Record
Temperature  
Mean Temperature 47 °F 45 °F  
Max Temperature 64 °F 54 °F 74 °F (1958)
Min Temperature 29 °F 36 °F 19 °F (1924)
Degree Days  
Heating Degree Days 18 20  
Month to date heating degree days 412 349  
Since 1 July heating degree days 937 972  
Cooling Degree Days 0 0  
Month to date cooling degree days 0 0  
Year to date cooling degree days 974 835  
Moisture  
Dew Point 33 °F    
Average Humidity 62    
Maximum Humidity 92    
Minimum Humidity 32    
Precipitation  
Precipitation 0.00 in 0.27 in 2.29 in (2005)
Month to date precipitation 0.49 3.62  
Year to date precipitation 7.50 34.02  
Since 1 July precipitation 1.92  
Snow  
Snow 0.00 in - - ()
Month to date snowfall 0.0  
Since 1 July snowfall 0.0  
Snow Depth 0.00 in    
Sea Level Pressure  
Sea Level Pressure 29.92 in    
Wind  
Wind Speed 4 mph (North)    
Max Wind Speed 18 mph    
Max Gust Speed 24 mph    
Visibility 10 miles    
Events      
T = Trace of Precipitation, MM = Missing Value Source: NWS Daily Summary

Daily Weather History Graph

Daily Weather History Graph

Search for Another Location

Airport or City:

Trip Planner

Search our weather history database for the weather conditions in past years. The results will help you decide how hot, cold, wet, or windy it might be!

Date:

Astronomy

Dec. 18, 2013 Rise Set
Actual Time 7:27 AM PST 4:52 PM PST
Civil Twilight 6:56 AM PST 5:22 PM PST
Nautical Twilight 6:23 AM PST 5:55 PM PST
Astronomical Twilight 5:50 AM PST 6:28 PM PST
Moon 6:28 PM PST (12/18) 8:11 AM PST (12/18)
Length of Visible Light 10h 25m
Length of Day
9h 25m
Full, 98% of the Moon is Illuminated
Dec 18
Full
Dec 25
Last Quarter
Jan 1
New
Jan 7
First Quarter
Jan 15
Full

Hourly Weather History & Observations

Time (PST) Temp. Dew Point Humidity Pressure Visibility Wind Dir Wind Speed Gust Speed Precip Events Conditions
12:56 AM 36.0 °F 30.9 °F 82% 30.06 in 8.0 mi Calm Calm - N/A   Clear
1:56 AM 35.1 °F 30.9 °F 85% 30.05 in 8.0 mi Calm Calm - N/A   Clear
2:56 AM 33.1 °F 30.0 °F 89% 30.04 in 10.0 mi Calm Calm - N/A   Clear
3:56 AM 33.1 °F 28.9 °F 85% 30.03 in 10.0 mi Calm Calm - N/A   Clear
4:56 AM 32.0 °F 28.0 °F 85% 30.02 in 10.0 mi Calm Calm - N/A   Clear
5:56 AM 33.1 °F 30.0 °F 89% 30.01 in 8.0 mi Calm Calm - N/A   Clear
6:56 AM 28.9 °F 27.0 °F 92% 30.01 in 10.0 mi Calm Calm - N/A   Clear
7:56 AM 30.0 °F 27.0 °F 88% 30.01 in 9.0 mi Calm Calm - N/A   Clear
8:56 AM 37.0 °F 33.1 °F 86% 30.02 in 8.0 mi Calm Calm - N/A   Clear
9:56 AM 41.0 °F 34.0 °F 76% 30.01 in 10.0 mi Calm Calm - N/A   Clear
10:56 AM 46.9 °F 34.0 °F 61% 29.97 in 10.0 mi Calm Calm - N/A   Clear
11:56 AM 55.0 °F 33.1 °F 43% 29.91 in 10.0 mi Calm Calm - N/A   Clear
12:56 PM 61.0 °F 30.9 °F 32% 29.86 in 10.0 mi Calm Calm - N/A   Clear
1:56 PM 62.1 °F 32.0 °F 32% 29.83 in 10.0 mi Calm Calm - N/A   Clear
2:56 PM 63.0 °F 35.1 °F 35% 29.82 in 10.0 mi North 4.6 mph - N/A   Clear
3:56 PM 59.0 °F 37.0 °F 44% 29.83 in 10.0 mi NNW 10.4 mph - N/A   Clear
4:56 PM 55.9 °F 39.9 °F 55% 29.84 in 10.0 mi NNE 5.8 mph - N/A   Clear
5:56 PM 55.9 °F 37.0 °F 49% 29.83 in 10.0 mi North 8.1 mph - N/A   Clear
6:56 PM 53.1 °F 37.0 °F 55% 29.83 in 10.0 mi NNE 8.1 mph - N/A   Clear
7:56 PM 52.0 °F 37.9 °F 59% 29.84 in 10.0 mi NNE 10.4 mph - N/A   Clear
8:56 PM 50.0 °F 37.0 °F 61% 29.84 in 10.0 mi North 6.9 mph - N/A   Clear
9:56 PM 48.0 °F 37.0 °F 66% 29.83 in 10.0 mi NE 6.9 mph - N/A   Clear
10:56 PM 48.0 °F 35.1 °F 61% 29.83 in 10.0 mi NNW 12.7 mph 19.6 mph N/A   Clear
11:56 PM 46.9 °F 35.1 °F 63% 29.81 in 10.0 mi NW 11.5 mph 19.6 mph N/A   Clear